Latest Coastal Weather Observations for Gabo Island

IDT60701

Issued at 5:22 pm EST Tuesday 30 August 2016 (issued every 10 minutes, with the page automatically refreshed every 10 minutes)

About coastal observations | Map of coastal stations | Coastal observations for TAS | Marine services | Other Formats
Station Details ID: 084016 Name: GABO ISLAND LIGHTHOUSE Lat: -37.57 Lon: 149.92 Height: 15.2 m
Data from the previous 72 hours. | See also: Recent months at Gabo Island
Date/Time
EST
Temp
°C
Wind Pressure Rain since
9am
mm
Weather Cloud Vis
km
Sea
Height
m
Swell
Dir  Spd
kts
Gust
kts
hPa Trend Height
m
Period
s
Dir
30/05:00pm 15.7 N 8 9 1019.7 - 0.0 - - - - - - -
30/04:30pm 16.4 N 8 18 1019.8 - 0.0 - - - - - - -
30/04:00pm 16.4 NNE 19 24 1019.3 - 0.0 - - - - - - -
30/03:30pm 16.8 NNE 18 22 1019.3 - 0.0 - - - - - - -
30/03:00pm 17.0 NNE 19 23 1019.5 - 0.0 Fine Cloudy 15 1 1.0 - -
30/02:30pm 17.2 NNE 20 27 1019.9 - 0.0 - - - - - - -
30/02:00pm 16.8 NNE 27 34 1019.6 - 0.0 - - - - - - -
30/01:30pm 16.6 NNE 27 35 1019.6 - 0.0 - - - - - - -
30/01:23pm 16.6 NNE 25 35 1019.7 - 0.0 - - - - - - -
30/01:00pm 16.3 NNE 26 32 1020.2 - 0.0 - - - - - - -
30/12:30pm 16.4 NNE 24 30 1020.5 - 0.0 - - - - - - -
30/12:00pm 16.2 NNE 19 25 1021.4 - 0.0 - - - - - - -
30/11:30am 15.7 NNE 17 22 1022.3 - 0.0 - - - - - - -
30/11:00am 15.4 NNE 16 19 1023.0 - 0.0 - - - - - - -
30/10:30am 15.6 NNE 19 21 1023.1 - 0.0 - - - - - - -
30/10:00am 16.1 N 17 23 1023.4 - 0.0 - - - - - - -
30/09:30am 15.7 NNE 17 21 1023.5 - 0.0 - - - - - - -
30/09:00am 15.7 N 15 19 1023.7 - 0.0 Fine Mostly cloudy 30 1 1.0 - -
30/08:30am 15.3 NNE 15 18 1023.8 - 0.0 - - - - - - -
30/08:00am 14.7 NNE 13 18 1024.0 - 0.0 - - - - - - -
30/07:30am 14.4 NNE 14 17 1023.7 - 0.0 - - - - - - -
30/07:00am 14.1 NNE 14 17 1023.4 - 0.0 - - - - - - -
30/06:30am 14.0 N 13 16 1023.6 - 0.0 - - - - - - -
30/06:00am 13.5 NE 12 14 1023.4 - 0.0 - - - - - - -
30/05:30am 13.2 NE 14 16 1023.0 - 0.0 - - - - - - -
30/05:00am 13.3 NNE 11 14 1023.0 - 0.0 - - - - - - -
30/04:30am 13.4 NE 11 13 1023.3 - 0.0 - - - - - - -
30/04:00am 13.2 NE 10 11 1023.5 - 0.0 - - - - - - -
30/03:30am 12.4 NNE 6 8 1023.5 - 0.0 - - - - - - -
30/03:00am 11.5 N 3 5 1023.6 - 0.0 Fine Clear 30 <0.5 1.0 - -
30/02:30am 11.7 N 5 6 1023.5 - 0.0 - - - - - - -
30/02:00am 12.8 NE 9 10 1023.7 - 0.0 - - - - - - -
30/01:30am 12.6 NE 8 10 1024.2 - 0.0 - - - - - - -
30/01:00am 11.4 ENE 4 5 1024.6 - 0.0 - - - - - - -
30/12:30am 11.2 CALM 0 0 1025.0 - 0.0 - - - - - - -
30/12:00am 11.4 CALM 0 0 1025.4 - 0.0 - - - - - - -
 
Date/Time
EST
Temp
°C
Wind Pressure Rain since
9am
mm
Weather Cloud Vis
km
Sea
Height
m
Swell
Dir  Spd
kts
Gust
kts
hPa Trend Height
m
Period
s
Dir
29/11:30pm 10.8 N 4 5 1025.4 - 0.0 - - - - - - -
29/11:00pm 10.8 NNE 4 5 1025.1 - 0.0 - - - - - - -
29/10:30pm 11.9 N 3 4 1025.4 - 0.0 - - - - - - -
29/10:00pm 11.3 NNW 3 5 1025.8 - 0.0 - - - - - - -
29/09:30pm 12.3 NNE 6 7 1025.8 - 0.0 - - - - - - -
29/09:00pm 12.2 NE 7 7 1025.6 - 0.0 Fine Clear 30 <0.5 1.0 - -
29/08:30pm 12.4 NNE 8 9 1025.4 - 0.0 - - - - - - -
29/08:00pm 12.7 NNE 8 9 1025.2 - 0.0 - - - - - - -
29/07:30pm 14.0 NE 10 11 1025.0 - 0.0 - - - - - - -
29/07:00pm 13.9 NE 11 12 1024.8 - 0.0 - - - - - - -
29/06:30pm 14.2 NE 12 13 1024.7 - 0.0 - - - - - - -
29/06:00pm 14.4 NE 11 13 1024.7 - 0.0 - - - - - - -
29/05:30pm 14.6 NE 12 15 1024.3 - 0.0 - - - - - - -
29/05:00pm 14.8 NE 12 13 1024.5 - 0.0 - - - - - - -
29/04:30pm 15.0 NE 12 14 1024.2 - 0.0 - - - - - - -
29/04:00pm 15.7 NE 12 14 1024.1 - 0.0 - - - - - - -
29/03:30pm 15.6 NE 12 14 1024.2 - 0.0 - - - - - - -
29/03:00pm 15.8 NE 13 15 1024.1 - 0.0 Fine Partly cloudy 40 1 1.0 - -
29/02:30pm 15.8 NE 13 15 1024.1 - 0.0 - - - - - - -
29/02:00pm 15.6 NE 12 13 1024.1 - 0.0 - - - - - - -
29/01:30pm 15.6 ENE 11 13 1024.2 - 0.0 - - - - - - -
29/01:00pm 15.7 ENE 10 11 1024.5 - 0.0 - - - - - - -
29/12:30pm 16.5 NE 9 11 1024.9 - 0.0 - - - - - - -
29/12:00pm 15.9 NE 9 10 1025.5 - 0.0 - - - - - - -
29/11:30am 15.8 NE 9 10 1025.8 - 0.0 - - - - - - -
29/11:00am 15.5 ENE 7 8 1026.1 - 0.0 - - - - - - -
29/10:30am 15.1 ENE 3 4 1026.4 - 0.0 - - - - - - -
29/10:00am 15.3 ESE 2 3 1026.4 - 0.0 - - - - - - -
29/09:30am 14.5 ENE 3 4 1026.4 - 0.0 - - - - - - -
29/09:00am 13.4 W 5 6 1026.4 - 0.0 Fine Mostly clear 40 <0.5 1.0 - -
29/08:30am 12.8 W 4 6 1026.3 - 0.0 - - - - - - -
29/08:00am 12.7 NW 4 6 1026.1 - 0.0 - - - - - - -
29/07:30am 11.1 NW 7 8 1025.8 - 0.0 - - - - - - -
29/07:00am 10.3 WNW 7 8 1025.6 - 0.0 - - - - - - -
29/06:30am 10.0 WNW 8 8 1025.2 - 0.0 - - - - - - -
29/06:00am 9.6 WNW 7 8 1024.7 - 0.0 - - - - - - -
29/05:30am 9.9 WNW 7 8 1024.3 - 0.0 - - - - - - -
29/05:00am 9.8 WNW 7 8 1024.0 - 0.0 - - - - - - -
29/04:30am 10.3 WNW 7 8 1023.7 - 0.0 - - - - - - -
29/04:00am 10.2 NW 7 8 1023.5 - 0.0 - - - - - - -
29/03:30am 10.2 WNW 7 9 1023.5 - 0.0 - - - - - - -
29/03:00am 10.4 WNW 7 9 1023.3 - 0.0 Fine Partly cloudy 40 <0.5 1.0 - -
29/02:30am 10.1 WNW 7 10 1023.2 - 0.0 - - - - - - -
29/02:00am 10.2 WNW 7 9 1023.4 - 0.0 - - - - - - -
29/01:30am 10.1 NW 8 9 1023.3 - 0.0 - - - - - - -
29/01:00am 10.1 WNW 9 12 1023.2 - 0.0 - - - - - - -
29/12:30am 10.4 W 8 11 1023.0 - 0.0 - - - - - - -
29/12:00am 11.0 WNW 7 7 1022.6 - 0.0 - - - - - - -
 
Date/Time
EST
Temp
°C
Wind Pressure Rain since
9am
mm
Weather Cloud Vis
km
Sea
Height
m
Swell
Dir  Spd
kts
Gust
kts
hPa Trend Height
m
Period
s
Dir
28/11:30pm 10.1 W 7 8 1022.6 - 0.0 - - - - - - -
28/11:00pm 10.3 W 7 8 1022.6 - 0.0 - - - - - - -
28/10:30pm 10.3 NW 6 8 1022.6 - 0.0 - - - - - - -
28/10:00pm 11.1 WNW 8 10 1022.6 - 0.0 - - - - - - -
28/09:30pm 10.7 WNW 7 8 1022.5 - 0.0 - - - - - - -
28/09:00pm 12.0 WSW 9 11 1022.4 - 0.0 Fine Clear 40 1 1.0 - -
28/08:30pm 12.0 WSW 9 10 1022.1 - 0.0 - - - - - - -
28/08:00pm 11.9 W 7 8 1021.7 - 0.0 - - - - - - -
28/07:30pm 12.6 WSW 10 12 1021.5 - 0.0 - - - - - - -
28/07:00pm 12.6 W 10 14 1021.3 - 0.0 - - - - - - -
28/06:30pm 13.1 SW 14 17 1020.7 - 0.0 - - - - - - -
28/06:00pm 13.4 SW 17 19 1020.4 - 0.0 - - - - - - -
28/05:30pm 13.5 SW 16 18 1020.0 - 0.0 - - - - - - -
28/05:00pm 13.8 SW 15 18 1019.6 - 0.0 - - - - - - -
28/04:30pm 14.1 SW 19 22 1019.2 - 0.0 - - - - - - -
28/04:00pm 14.3 SSW 20 23 1019.0 - 0.0 - - - - - - -
28/03:30pm 15.1 SSW 19 22 1018.7 - 0.0 - - - - - - -
28/03:00pm 15.6 SW 21 24 1018.5 - 0.0 Fine Mostly cloudy 40 2 1.0 - -
28/02:30pm 15.8 SW 19 24 1018.5 - 0.0 - - - - - - -
28/02:00pm 16.0 SW 16 21 1018.3 - 0.0 - - - - - - -
28/01:30pm 17.2 WSW 16 20 1018.4 - 0.0 - - - - - - -
28/01:00pm 17.6 W 10 14 1018.6 - 0.0 - - - - - - -
28/12:30pm 17.0 W 9 11 1019.0 - 0.0 - - - - - - -
28/12:00pm 15.2 WNW 6 9 1019.4 - 0.0 - - - - - - -
28/11:30am 14.3 WNW 8 11 1019.5 - 0.0 - - - - - - -
28/11:00am 13.9 WNW 10 15 1019.6 - 0.0 - - - - - - -
28/10:30am 13.6 WNW 10 13 1019.4 - 0.0 - - - - - - -
28/10:00am 13.2 NW 10 13 1019.3 - 0.0 - - - - - - -
28/09:30am 12.9 NW 11 18 1019.3 - 0.0 - - - - - - -
28/09:00am 12.6 NW 11 15 1019.3 - 0.0 Fine Cloudy 40 1 1.0 - -
28/08:30am 12.1 NW 13 18 1019.2 - 0.0 - - - - - - -
28/08:00am 11.9 NW 11 17 1019.3 - 0.0 - - - - - - -
28/07:30am 11.6 NW 9 13 1019.2 - 0.0 - - - - - - -
28/07:00am 11.4 NW 9 15 1018.9 - 0.0 - - - - - - -
28/06:30am 11.2 NW 9 13 1018.6 - 0.0 - - - - - - -
28/06:00am 11.2 NW 10 14 1018.7 - 0.0 - - - - - - -
28/05:30am 11.3 NW 9 13 1018.4 - 0.0 - - - - - - -
28/05:00am 10.9 NW 9 13 1018.3 - 0.0 - - - - - - -
28/04:30am 10.6 WNW 7 10 1018.2 - 0.0 - - - - - - -
28/04:00am 10.5 WNW 8 10 1018.1 - 0.0 - - - - - - -
28/03:30am 10.0 WNW 7 10 1018.3 - 0.0 - - - - - - -
28/03:00am 9.5 W 6 9 1018.2 - 0.0 Fine Partly cloudy 30 <0.5 1.0 - -
28/02:30am 9.1 W 6 7 1018.5 - 0.0 - - - - - - -
28/02:00am 10.1 NW 6 8 1018.6 - 0.0 - - - - - - -
28/01:30am 10.1 WNW 6 8 1018.7 - 0.0 - - - - - - -
28/01:00am 9.8 NW 7 9 1018.6 - 0.0 - - - - - - -
28/12:30am 9.0 WNW 8 10 1019.0 - 0.0 - - - - - - -
28/12:00am 9.0 WNW 8 11 1018.9 - 0.0 - - - - - - -
 
Date/Time
EST
Temp
°C
Wind Pressure Rain since
9am
mm
Weather Cloud Vis
km
Sea
Height
m
Swell
Dir  Spd
kts
Gust
kts
hPa Trend Height
m
Period
s
Dir
27/11:30pm 9.0 WNW 8 9 1018.9 - 0.0 - - - - - - -
27/11:00pm 9.1 NW 8 9 1019.0 - 0.0 - - - - - - -
27/10:30pm 9.2 WNW 8 9 1019.2 - 0.0 - - - - - - -
27/10:00pm 9.9 NW 8 9 1019.1 - 0.0 - - - - - - -
27/09:30pm 9.9 NW 6 8 1019.2 - 0.0 - - - - - - -
27/09:00pm 10.3 NW 3 5 1019.2 - 0.0 Fine Partly cloudy 40 <0.5 1.0 - -
27/08:30pm 10.2 CALM 0 0 1019.3 - 0.0 - - - - - - -
27/08:00pm 10.8 CALM 0 0 1019.3 - 0.0 - - - - - - -
27/07:30pm 10.7 CALM 0 0 1019.1 - 0.0 - - - - - - -
27/07:00pm 9.9 NNE 4 5 1019.0 - 0.0 - - - - - - -
27/06:30pm 11.5 CALM 0 0 1019.3 - 0.0 - - - - - - -
27/06:00pm 12.2 E 4 5 1019.0 - 0.0 - - - - - - -
27/05:30pm 12.4 ENE 5 6 1018.9 - 0.0 - - - - - - -

Other Formats:

Comma delimited format used in spreadsheet applications
http://www.bom.gov.au/fwo/IDT60701/IDT60701.94933.axf

JavaScript Object Notation format (JSON) in row-major order
http://www.bom.gov.au/fwo/IDT60701/IDT60701.94933.json